Location: �chenoz-la-M�line
(47.6009°N, 6.1354°E)
Time: 11:27:37
(UTC+00:00)

NOSS 0 Rocket - Pass Details

Date: 27 January 2021
Orbit: 937 x 952 km, 70.0° (Epoch: 02 March)

Event Time Altitude Azimuth Distance (km) Brightness Sun altitude
Exits shadow 04:45:41 52° 288° (WNW) 1,160 4.0 -23.9°
Maximum altitude 04:46:11 53° 305° (NW) 1,142 4.0 -23.8°
Drops below altitude 10° 04:52:14 10° 22° (NNE) 2,663 6.5 -22.8°
Sets 04:54:50 0° 28° (NNE) 3,609 7.3 -22.4°
